GW5591 Weather Reports


time (UTC)temp
C
wind
direction
speed
KPH
gust
KPH
rain 1hr
cm
rain 24hr
cm
rain mn
cm
humidity
%
barometer
mb
20260504050305 5 60 0.0 0.0 0.00 0.00 0.00 57 1015.0
20260504045802 5 60 0.0 0.0 0.00 0.00 0.00 61 1014.9
20260504045256 5 60 0.0 0.0 0.00 0.00 0.00 57 1014.8
20260504044754 5 60 0.0 0.0 0.00 0.00 0.00 64 1015.1
20260504044251 5 60 0.0 0.0 0.00 0.00 0.00 63 1014.9
20260504043748 5 60 0.0 0.0 0.00 0.00 0.00 60 1014.9
20260504043245 5 60 0.0 0.0 0.00 0.00 0.00 60 1014.8
20260504042743 5 60 0.0 0.0 0.00 0.00 0.00 58 1014.7
20260504042240 5 60 0.0 0.0 0.00 0.00 0.00 58 1014.9
20260504041736 5 60 0.0 0.0 0.00 0.00 0.00 60 1015.0
20260504041232 5 60 0.0 0.0 0.00 0.00 0.00 62 1014.8
20260504040728 5 60 0.0 0.0 0.00 0.00 0.00 66 1015.0
20260504040225 5 60 0.0 0.0 0.00 0.00 0.00 66 1015.1
20260504035721 5 60 0.0 1.6 0.00 0.00 0.00 64 1014.9
20260504035220 5 60 0.0 0.0 0.00 0.00 0.00 61 1015.1
20260504034717 5 60 0.0 0.0 0.00 0.00 0.00 61 1015.1
20260504034214 6 60 0.0 0.0 0.00 0.00 0.00 58 1015.0
20260504033711 6 60 0.0 1.6 0.00 0.00 0.00 62 1015.0
20260504033208 6 60 0.0 0.0 0.00 0.00 0.00 63 1014.9
20260504032705 5 59 0.0 1.6 0.00 0.00 0.00 60 1015.0
20260504032202 5 62 0.0 1.6 0.00 0.00 0.00 61 1015.1
20260504031659 5 60 0.0 1.6 0.00 0.00 0.00 60 1015.1
20260504031155 5 55 1.6 1.6 0.00 0.00 0.00 60 1014.9
20260504030652 5 101 0.0 1.6 0.00 0.00 0.00 58 1015.0
20260504030148 5 104 0.0 0.0 0.00 0.00 0.00 58 1014.9
20260504025645 6 104 0.0 0.0 0.00 0.00 0.00 58 1015.0
20260504025143 6 106 0.0 0.0 0.00 0.00 0.00 57 1015.1
20260504024640 6 106 0.0 0.0 0.00 0.00 0.00 58 1015.0
20260504024136 6 106 0.0 0.0 0.00 0.00 0.00 57 1014.9
20260504023633 6 107 0.0 0.0 0.00 0.00 0.00 58 1015.3
20260504023129 6 107 0.0 0.0 0.00 0.00 0.00 58 1015.0
20260504022625 6 108 0.0 0.0 0.00 0.00 0.00 62 1014.9
20260504022121 6 110 0.0 0.0 0.00 0.00 0.00 57 1014.9
20260504021619 6 145 0.0 0.0 0.00 0.00 0.00 57 1014.9
20260504021115 6 145 0.0 0.0 0.00 0.00 0.00 56 1014.9
20260504020613 6 146 0.0 1.6 0.00 0.00 0.00 55 1014.9
20260504020109 6 146 0.0 0.0 0.00 0.00 0.00 56 1014.8
20260504015605 7 146 0.0 0.0 0.00 0.00 0.00 54 1014.9
20260504015101 7 146 0.0 0.0 0.00 0.00 0.00 56 1014.8
20260504014557 7 146 0.0 1.6 0.00 0.00 0.00 58 1014.8
20260504014055 7 146 0.0 0.0 0.00 0.00 0.00 52 1014.9
20260504013552 7 147 0.0 0.0 0.00 0.00 0.00 51 1014.9
20260504013049 7 153 0.0 0.0 0.00 0.00 0.00 54 1014.8
20260504012547 7 128 0.0 0.0 0.00 0.00 0.00 58 1014.7
20260504012044 7 146 0.0 1.6 0.00 0.00 0.00 56 1014.6
20260504011541 7 149 0.0 0.0 0.00 0.00 0.00 58 1014.6
20260504011037 7 155 0.0 1.6 0.00 0.00 0.00 55 1014.5
20260504010533 7 161 0.0 0.0 0.00 0.00 0.00 56 1014.7
20260504010029 7 168 1.6 1.6 0.00 0.00 0.00 55 1014.8
20260504005527 7 153 0.0 1.6 0.00 0.00 0.00 57 1014.7
20260504005024 7 171 0.0 1.6 0.00 0.00 0.00 56 1014.7
20260504004522 7 181 0.0 1.6 0.00 0.00 0.00 54 1014.8
20260504004018 7 211 0.0 1.6 0.00 0.00 0.00 56 1014.6
20260504003514 7 153 0.0 1.6 0.00 0.00 0.00 50 1014.7
20260504003011 7 146 0.0 1.6 0.00 0.00 0.00 53 1014.6
20260504002508 8 142 0.0 0.0 0.00 0.00 0.00 52 1014.8
20260504002005 8 137 1.6 1.6 0.00 0.00 0.00 46 1014.6
20260504001503 8 295 0.0 0.0 0.00 0.00 0.00 48 1014.7
20260504000959 8 152 0.0 1.6 0.00 0.00 0.00 51 1014.4
20260504000456 8 152 0.0 0.0 0.00 0.00 0.00 48 1014.4
20260503235953 8 148 0.0 0.0 0.00 0.00 0.00 43 1014.7
20260503235451 9 156 0.0 1.6 0.00 0.00 0.00 43 1014.6
20260503234948 9 191 1.6 1.6 0.00 0.00 0.00 46 1014.7
20260503234446 9 125 0.0 0.0 0.00 0.00 0.00 44 1014.5
20260503233944 9 117 0.0 0.0 0.00 0.00 0.00 43 1014.5
20260503233440 10 134 0.0 1.6 0.00 0.00 0.00 44 1014.4
20260503232936 10 259 0.0 3.2 0.00 0.00 0.00 41 1014.5
20260503232433 10 21 3.2 3.2 0.00 0.00 0.00 41 1014.8
20260503231931 10 167 3.2 3.2 0.00 0.00 0.00 41 1014.4
20260503231428 10 143 1.6 3.2 0.00 0.00 0.00 40 1014.3
20260503230925 10 129 4.8 6.4 0.00 0.00 0.00 39 1014.4
20260503230421 10 91 0.0 1.6 0.00 0.00 0.00 43 1014.5
20260503225919 10 87 0.0 4.8 0.00 0.00 0.00 39 1014.4
20260503225415 10 132 1.6 3.2 0.00 0.00 0.00 42 1014.6
20260503224911 10 176 1.6 1.6 0.00 0.00 0.00 42 1014.3
20260503224408 10 291 1.6 3.2 0.00 0.00 0.00 40 1014.5
20260503223906 10 233 1.6 3.2 0.00 0.00 0.00 39 1014.4
20260503223404 10 147 1.6 4.8 0.00 0.00 0.00 40 1014.6
20260503222859 10 113 0.0 1.6 0.00 0.00 0.00 39 1014.4
20260503222358 11 294 3.2 6.4 0.00 0.00 0.00 39 1014.6
20260503221856 11 123 0.0 3.2 0.00 0.00 0.00 39 1014.4
20260503221354 11 125 0.0 3.2 0.00 0.00 0.00 37 1014.5
20260503220850 11 256 4.8 6.4 0.00 0.00 0.00 38 1014.7
20260503220347 11 144 3.2 11.3 0.00 0.00 0.00 38 1014.4
20260503215844 11 205 1.6 3.2 0.00 0.00 0.00 37 1014.5
20260503215341 11 144 4.8 6.4 0.00 0.00 0.00 37 1014.5
20260503214838 11 147 1.6 3.2 0.00 0.00 0.00 37 1014.5
20260503214336 11 118 3.2 6.4 0.00 0.00 0.00 36 1014.5
20260503213833 11 134 4.8 11.3 0.00 0.00 0.00 36 1014.6
20260503213330 11 165 0.0 3.2 0.00 0.00 0.00 40 1014.5
20260503212827 11 316 3.2 3.2 0.00 0.00 0.00 37 1014.7
20260503212325 11 209 1.6 3.2 0.00 0.00 0.00 37 1014.7
20260503211822 11 152 1.6 3.2 0.00 0.00 0.00 38 1014.4
20260503211319 12 118 0.0 6.4 0.00 0.00 0.00 38 1014.7
20260503210819 12 108 3.2 3.2 0.00 0.00 0.00 34 1014.7
20260503210316 12 256 3.2 11.3 0.00 0.00 0.00 35 1014.6
20260503205811 12 126 1.6 3.2 0.00 0.00 0.00 38 1014.6
20260503205308 11 136 1.6 9.7 0.00 0.00 0.00 38 1014.8
20260503204805 12 145 0.0 4.8 0.00 0.00 0.00 35 1014.8
20260503204303 12 145 1.6 3.2 0.00 0.00 0.00 37 1014.9
20260503203759 12 148 1.6 14.5 0.00 0.00 0.00 37 1014.9
20260503203257 12 151 8.0 9.7 0.00 0.00 0.00 36 1014.8
20260503202754 12 161 6.4 11.3 0.00 0.00 0.00 40 1014.9
20260503202252 11 125 0.0 3.2 0.00 0.00 0.00 38 1014.9
20260503201749 11 148 3.2 4.8 0.00 0.00 0.00 36 1015.3
20260503201247 12 312 1.6 6.4 0.00 0.00 0.00 36 1015.4
20260503200743 11 87 1.6 6.4 0.00 0.00 0.00 37 1015.1
20260503200239 12 168 0.0 6.4 0.00 0.00 0.00 36 1015.4
20260503195736 12 165 1.6 4.8 0.00 0.00 0.00 35 1015.3
20260503195233 12 23 3.2 3.2 0.00 0.00 0.00 35 1015.5
20260503194731 13 344 6.4 11.3 0.00 0.00 0.00 34 1015.6
20260503194226 11 272 3.2 4.8 0.00 0.00 0.00 36 1015.7
20260503193723 12 239 3.2 6.4 0.00 0.00 0.00 34 1015.7
20260503193219 13 303 8.0 9.7 0.00 0.00 0.00 36 1015.6
20260503192715 12 147 0.0 3.2 0.00 0.00 0.00 36 1015.7
20260503192210 12 310 1.6 9.7 0.00 0.00 0.00 36 1015.8
20260503191707 12 155 1.6 4.8 0.00 0.00 0.00 35 1015.9
20260503191204 11 8 0.0 3.2 0.00 0.00 0.00 39 1015.8
20260503190701 11 164 0.0 4.8 0.00 0.00 0.00 39 1016.1
20260503190157 11 254 0.0 4.8 0.00 0.00 0.00 38 1015.7
20260503185655 10 289 1.6 3.2 0.00 0.00 0.00 42 1016.1
20260503185150 11 143 3.2 9.7 0.00 0.00 0.00 38 1016.1
20260503184646 11 153 3.2 4.8 0.00 0.00 0.00 37 1016.0
20260503184142 11 120 0.0 4.8 0.00 0.00 0.00 41 1016.0
20260503183638 11 193 6.4 14.5 0.00 0.00 0.00 36 1016.1
20260503183136 10 149 6.4 6.4 0.00 0.00 0.00 39 1016.2
20260503182634 11 305 1.6 4.8 0.00 0.00 0.00 38 1016.3
20260503182132 10 143 1.6 4.8 0.00 0.00 0.00 41 1016.4
20260503181628 10 174 8.0 12.9 0.00 0.00 0.00 42 1016.0
20260503181125 11 144 3.2 4.8 0.00 0.00 0.00 40 1016.0
20260503180622 11 151 4.8 11.3 0.00 0.00 0.00 40 1016.0
20260503180120 11 64 3.2 4.8 0.00 0.00 0.00 37 1016.3
20260503175616 11 299 6.4 9.7 0.00 0.00 0.00 39 1016.1
20260503175113 11 154 3.2 4.8 0.00 0.00 0.00 42 1016.1
20260503174610 11 137 3.2 4.8 0.00 0.00 0.00 41 1015.8
20260503174107 10 166 3.2 9.7 0.00 0.00 0.00 40 1016.4
20260503173602 10 151 0.0 4.8 0.00 0.00 0.00 42 1016.2
20260503173100 10 168 6.4 6.4 0.00 0.00 0.00 39 1016.1
20260503172556 10 157 4.8 6.4 0.00 0.00 0.00 40 1016.1
20260503172053 10 182 6.4 9.7 0.00 0.00 0.00 45 1016.7
20260503171549 10 335 3.2 6.4 0.00 0.00 0.00 43 1016.7
20260503171047 9 266 3.2 6.4 0.00 0.00 0.00 43 1016.7
20260503170543 10 254 6.4 14.5 0.00 0.00 0.00 41 1016.5
20260503150936 7 141 0.0 4.8 0.00 0.00 0.00 49 1017.4
20260503150432 7 106 0.0 6.4 0.00 0.00 0.00 48 1017.4
20260503131325 3 272 3.2 4.8 0.00 0.00 0.00 72 1017.1
20260503130823 2 149 4.8 6.4 0.00 0.00 0.00 75 1017.2
20260503130320 2 140 0.0 3.2 0.00 0.00 0.00 75 1017.2
20260503110714 0 148 0.0 1.6 0.00 0.00 0.00 94 1016.3
20260503110211 0 131 0.0 1.6 0.00 0.00 0.00 94 1016.2
20260503100137 0 117 0.0 1.6 0.00 0.00 0.00 93 1015.4
20260503081532 0 140 1.6 1.6 0.00 0.00 0.00 90 1015.0
20260503081030 0 139 0.0 0.0 0.00 0.00 0.00 90 1015.1
20260503080526 0 130 0.0 1.6 0.00 0.00 0.00 90 1015.0
20260503072459 0 120 1.6 1.6 0.00 0.00 0.00 88 1014.8
20260503071956 0 145 0.0 1.6 0.00 0.00 0.00 87 1014.6
20260503071453 0 205 3.2 3.2 0.00 0.00 0.00 87 1014.4
20260503070949 0 147 0.0 1.6 0.00 0.00 0.00 87 1014.6
20260503070447 0 129 0.0 6.4 0.00 0.00 0.00 86 1014.5